Location: Easthampton
(42.2676°N, 72.6690°W)
Time: 13:54:14
(UTC+00:00)

Gurwin Techsat 1B - Pass Details

Date: 02 April 2023
Orbit: 811 x 813 km, 98.9° (Epoch: 02 June)

Event Time Altitude Azimuth Distance (km) Brightness Sun altitude
Rises 08:22:46 0° 8° (N) 3,348 12.4 -23.3°
Reaches altitude 10° 08:25:10 10° 3° (N) 2,412 11.5 -22.9°
Maximum altitude 08:30:15 47° 290° (WNW) 1,066 8.9 -22.1°
Enters shadow 08:30:52 45° 270° (W) 1,097 8.9 -22.0°
